FW5399 Weather Reports


Display with metric or nautical units.
time (UTC)temp
F
wind
direction
speed
MPH
gust
MPH
rain 1hr
in
rain 24hr
in
rain mn
in
humidity
%
barometer
mb
20260901222026 61 317 1.0 8.0 0.00 0.00 0.00 70 1018.0
20260901221938 61 120 1.0 6.0 0.00 0.00 0.00 69 1018.1
20260901221027 61 342 1.0 6.0 0.00 0.00 0.00 68 1018.0
20260901220528 61 341 1.0 7.0 0.00 0.00 0.00 69 1018.4
20260901220026 60 315 2.0 7.0 0.00 0.00 0.00 68 1018.2
20260901215526 61 346 1.0 7.0 0.00 0.00 0.00 69 1018.0
20260901215022 62 346 1.0 5.0 0.00 0.00 0.00 69 1018.1
20260901214529 61 311 2.0 7.0 0.00 0.00 0.00 70 1018.1
20260901214444 60 329 2.0 9.0 0.00 0.00 0.00 69 1018.2
20260901213527 60 196 2.0 9.0 0.00 0.00 0.00 69 1018.3
20260901213026 60 305 2.0 13.0 0.00 0.00 0.00 69 1018.4
20260901212525 60 312 2.0 13.0 0.00 0.00 0.00 70 1018.5
20260901212022 60 329 1.0 8.0 0.00 0.00 0.00 70 1018.5
20260901211519 61 357 1.0 7.0 0.00 0.00 0.00 69 1018.5
20260901211423 60 2 1.0 5.0 0.00 0.00 0.00 69 1018.5
20260901210516 60 313 1.0 6.0 0.00 0.00 0.00 70 1018.4
20260901210017 60 354 1.0 6.0 0.00 0.00 0.00 69 1018.2
20260901205516 60 334 1.0 6.0 0.00 0.00 0.00 71 1018.1
20260901205016 60 2 1.0 5.0 0.00 0.00 0.00 70 1018.3
20260901204516 60 270 1.0 5.0 0.00 0.00 0.00 70 1018.3
20260901204021 59 338 1.0 6.0 0.00 0.00 0.00 71 1018.3
20260901203929 59 322 1.0 6.0 0.00 0.00 0.00 71 1018.4
20260901203018 58 293 1.0 5.0 0.00 0.00 0.00 72 1018.3
20260901202515 58 348 1.0 6.0 0.00 0.00 0.00 73 1018.4
20260901202013 58 330 1.0 6.0 0.00 0.00 0.00 72 1018.3
20260901201506 58 347 1.0 6.0 0.00 0.00 0.00 73 1018.2
20260901201002 57 349 0.0 6.0 0.00 0.00 0.00 73 1018.2
20260901200455 57 5 1.0 5.0 0.00 0.00 0.00 74 1018.2
20260901195951 57 346 1.0 5.0 0.00 0.00 0.00 74 1018.2
20260901195443 57 310 0.0 3.0 0.00 0.00 0.00 74 1018.2
20260901194937 56 287 0.0 3.0 0.00 0.00 0.00 75 1018.2
20260901194432 56 242 0.0 2.0 0.00 0.00 0.00 74 1018.1
20260901194104 56 285 0.0 4.0 0.00 0.00 0.00 75 1018.0
20260901192913 56 286 1.0 7.0 0.00 0.00 0.00 75 1017.9
20260901192407 55 319 0.0 3.0 0.00 0.00 0.00 76 1017.8
20260901191902 54 290 0.0 3.0 0.00 0.00 0.00 77 1017.8
20260901191355 54 281 0.0 2.0 0.00 0.00 0.00 77 1017.7
20260901190851 53 272 0.0 4.0 0.00 0.00 0.00 78 1017.7
20260901190343 53 233 0.0 3.0 0.00 0.00 0.00 78 1017.6
20260901190254 53 273 0.0 1.0 0.00 0.00 0.00 78 1017.5
20260901185332 53 272 1.0 4.0 0.00 0.00 0.00 78 1017.5
20260901184825 52 193 1.0 6.0 0.00 0.00 0.00 78 1017.4
20260901184321 52 243 1.0 6.0 0.00 0.00 0.00 78 1017.5
20260901183813 52 303 1.0 6.0 0.00 0.00 0.00 78 1017.6
20260901183307 51 293 0.0 6.0 0.00 0.00 0.00 79 1017.5
20260901182938 51 246 1.0 4.0 0.00 0.00 0.00 78 1017.4
20260901181752 51 251 1.0 13.0 0.00 0.00 0.00 78 1017.6
20260901181244 51 241 0.0 4.0 0.00 0.00 0.00 78 1017.5
20260901180738 51 274 1.0 4.0 0.00 0.00 0.00 78 1017.3
20260901180234 51 244 1.0 4.0 0.00 0.00 0.00 78 1017.3
20260901175736 51 212 1.0 5.0 0.00 0.00 0.00 79 1017.2
20260901175236 51 133 1.0 5.0 0.00 0.00 0.00 78 1017.2
20260901174736 51 224 0.0 3.0 0.00 0.00 0.00 78 1017.0
20260901174235 51 289 0.0 3.0 0.00 0.00 0.00 77 1017.0
20260901174214 51 255 1.0 4.0 0.00 0.00 0.00 77 1016.9
20260901173232 51 204 1.0 5.0 0.00 0.00 0.00 76 1016.8
20260901172732 51 219 1.0 6.0 0.00 0.00 0.00 77 1016.5
20260901172232 51 242 1.0 7.0 0.00 0.00 0.00 77 1016.4
20260901171738 51 231 1.0 7.0 0.00 0.00 0.00 77 1016.4
20260901171236 51 259 1.0 5.0 0.00 0.00 0.00 76 1016.3
20260901170732 51 229 0.0 3.0 0.00 0.00 0.00 76 1016.3
20260901170231 51 215 0.0 3.0 0.00 0.00 0.00 76 1016.7
20260901165732 51 245 1.0 9.0 0.00 0.00 0.00 76 1016.5
20260901165231 51 182 1.0 9.0 0.00 0.00 0.00 75 1016.9
20260901165129 51 265 1.0 9.0 0.00 0.00 0.00 75 1016.7
20260901164625 51 328 2.0 9.0 0.00 0.00 0.00 75 1016.7
20260901164125 51 277 2.0 9.0 0.00 0.00 0.00 75 1016.7
20260901163228 51 305 2.0 10.0 0.00 0.00 0.00 75 1016.3
20260901162726 51 157 2.0 10.0 0.00 0.00 0.00 75 1016.2
20260901162226 51 267 1.0 7.0 0.00 0.00 0.00 75 1016.2
20260901162209 51 234 1.0 7.0 0.00 0.00 0.00 76 1016.2
20260901161226 51 237 1.0 6.0 0.00 0.00 0.00 75 1015.8
20260901160727 51 259 1.0 6.0 0.00 0.00 0.00 75 1016.2
20260901160624 51 252 1.0 6.0 0.00 0.00 0.00 76 1016.3
20260901155725 51 289 1.0 6.0 0.00 0.00 0.00 75 1016.2
20260901155223 50 284 1.0 6.0 0.00 0.00 0.00 76 1016.3
20260901154724 51 4 1.0 6.0 0.00 0.00 0.00 76 1016.1
20260901154226 50 242 1.0 6.0 0.00 0.00 0.00 76 1016.3
20260901153725 50 289 0.0 3.0 0.00 0.00 0.00 77 1016.3
20260901153224 50 347 0.0 3.0 0.00 0.00 0.00 78 1016.3
20260901152724 50 255 0.0 0.0 0.00 0.00 0.00 77 1016.2
20260901152422 51 254 0.0 7.0 0.00 0.00 0.00 76 1016.3
20260901151224 51 217 0.0 2.0 0.00 0.00 0.00 76 1016.3
20260901150733 51 296 1.0 4.0 0.00 0.00 0.00 75 1016.4
20260901150214 51 225 1.0 4.0 0.00 0.00 0.00 75 1016.4
20260901145709 51 287 1.0 4.0 0.00 0.00 0.00 76 1016.3
20260901145214 51 272 1.0 5.0 0.00 0.00 0.00 76 1016.5
20260901144655 51 234 0.0 5.0 0.00 0.00 0.00 76 1016.8
20260901144152 51 330 0.0 1.0 0.00 0.00 0.00 77 1016.8
20260901143657 51 300 0.0 1.0 0.00 0.00 0.00 77 1017.0
20260901143140 51 291 0.0 4.0 0.00 0.00 0.00 77 1017.1
20260901142645 51 290 1.0 4.0 0.00 0.00 0.00 77 1017.1
20260901142127 51 231 0.0 4.0 0.00 0.00 0.00 76 1017.2
20260901141634 51 271 0.0 2.0 0.00 0.00 0.00 77 1017.2
20260901141127 51 319 0.0 2.0 0.00 0.00 0.00 77 1017.4
20260901140609 51 239 0.0 2.0 0.00 0.00 0.00 77 1017.4
20260901140115 51 208 1.0 4.0 0.00 0.00 0.00 76 1017.5
20260901135556 51 249 0.0 4.0 0.00 0.00 0.00 77 1017.6
20260901135451 51 251 0.0 0.0 0.00 0.00 0.00 79 1017.6
20260901134544 51 251 0.0 0.0 0.00 0.00 0.00 78 1017.6
20260901134038 51 251 0.0 0.0 0.00 0.00 0.00 78 1017.7
20260901133532 51 251 0.0 2.0 0.00 0.00 0.00 78 1017.7
20260901133027 51 251 0.0 2.0 0.00 0.00 0.00 77 1017.7
20260901132527 51 248 0.0 2.0 0.00 0.00 0.00 77 1017.5
20260901132024 51 193 0.0 2.0 0.00 0.00 0.00 78 1017.5
20260901131934 51 193 0.0 2.0 0.00 0.00 0.00 78 1017.5
20260901131021 50 239 0.0 3.0 0.00 0.00 0.00 79 1017.5
20260901130522 51 239 0.0 3.0 0.00 0.00 0.00 79 1017.5
20260901130021 51 244 0.0 1.0 0.00 0.00 0.00 78 1017.4
20260901125654 51 297 0.0 0.0 0.00 0.00 0.00 78 1017.5
20260901124518 51 296 0.0 2.0 0.00 0.00 0.00 76 1017.4
20260901124018 51 334 0.0 2.0 0.00 0.00 0.00 76 1017.4
20260901123517 51 329 0.0 2.0 0.00 0.00 0.00 77 1017.3
20260901123015 51 260 0.0 7.0 0.00 0.00 0.00 77 1017.5
20260901122940 50 275 0.0 7.0 0.00 0.00 0.00 78 1017.4
20260901122431 50 281 0.0 0.0 0.00 0.00 0.00 79 1017.3
20260901121513 50 291 0.0 0.0 0.00 0.00 0.00 79 1017.3
20260901121409 50 291 0.0 0.0 0.00 0.00 0.00 78 1016.9
20260901120515 51 291 0.0 4.0 0.00 0.00 0.00 77 1016.9
20260901120012 51 291 0.0 4.0 0.00 0.00 0.00 77 1016.9
20260901115511 50 294 0.0 3.0 0.00 0.00 0.00 77 1016.8
20260901115005 51 278 0.0 2.0 0.00 0.00 0.00 77 1016.7
20260901114501 51 262 1.0 8.0 0.00 0.00 0.00 76 1016.7
20260901113953 51 330 1.0 8.0 0.00 0.00 0.00 76 1016.7
20260901113448 51 327 0.0 3.0 0.00 0.00 0.00 76 1016.5
20260901112941 51 333 0.0 5.0 0.00 0.00 0.00 76 1016.5
20260901112435 51 348 1.0 5.0 0.00 0.00 0.00 76 1016.4
20260901111932 51 334 1.0 4.0 0.00 0.00 0.00 76 1016.4
20260901111423 51 313 1.0 9.0 0.00 0.00 0.00 76 1016.3
20260901110918 51 303 0.0 9.0 0.00 0.00 0.00 77 1016.3
20260901110411 51 295 0.0 11.0 0.00 0.00 0.00 76 1016.3
20260901105905 50 282 0.0 11.0 0.00 0.00 0.00 77 1016.4
20260901105402 50 307 0.0 4.0 0.00 0.00 0.00 77 1016.5
20260901105054 51 306 0.0 1.0 0.00 0.00 0.00 76 1016.4
20260901104955 51 278 0.0 2.0 0.00 0.00 0.00 76 1016.4
20260901103336 51 323 0.0 4.0 0.00 0.00 0.00 76 1016.2
20260901103227 50 296 0.0 4.0 0.00 0.00 0.00 76 1016.3
20260901102324 50 322 0.0 4.0 0.00 0.00 0.00 78 1016.3
20260901101817 50 258 0.0 2.0 0.00 0.00 0.00 77 1016.4
20260901101704 50 274 0.0 1.0 0.00 0.00 0.00 77 1016.2
20260901100807 51 273 0.0 1.0 0.00 0.00 0.00 76 1016.3
20260901100302 51 302 0.0 1.0 0.00 0.00 0.00 75 1016.2
20260901095754 52 302 0.0 1.0 0.00 0.00 0.00 74 1016.4
20260901095247 52 303 0.0 4.0 0.00 0.00 0.00 74 1016.3
20260901094742 52 297 0.0 4.0 0.00 0.00 0.00 73 1016.3
20260901094235 53 319 0.0 3.0 0.00 0.00 0.00 73 1016.3
20260901093732 53 258 0.0 4.0 0.00 0.00 0.00 73 1016.3
20260901093223 52 351 0.0 5.0 0.00 0.00 0.00 73 1016.3
20260901092717 52 343 0.0 5.0 0.00 0.00 0.00 74 1016.3
20260901092211 52 285 0.0 4.0 0.00 0.00 0.00 74 1016.1
20260901091707 52 335 0.0 4.0 0.00 0.00 0.00 75 1016.1
20260901091202 52 17 0.0 1.0 0.00 0.00 0.00 76 1015.9
20260901090653 52 308 0.0 1.0 0.00 0.00 0.00 76 1016.0
20260901090148 52 317 0.0 1.0 0.00 0.00 0.00 76 1016.0
20260901085641 52 322 0.0 1.0 0.00 0.00 0.00 76 1015.8
20260901085533 52 319 0.0 2.0 0.00 0.00 0.00 76 1015.9
20260901084815 52 337 0.0 2.0 0.00 0.00 0.00 76 1015.7
20260901083617 52 303 0.0 5.0 0.00 0.00 0.00 77 1015.8
20260901083111 51 334 0.0 5.0 0.00 0.00 0.00 78 1015.7
20260901082605 51 296 0.0 2.0 0.00 0.00 0.00 78 1015.8
20260901082102 51 296 0.0 2.0 0.00 0.00 0.00 78 1015.6
20260901081554 51 296 0.0 1.0 0.00 0.00 0.00 77 1015.7
20260901081047 52 297 0.0 1.0 0.00 0.00 0.00 76 1015.5
20260901080543 52 318 0.0 1.0 0.00 0.00 0.00 76 1015.4
20260901080041 53 310 0.0 3.0 0.00 0.00 0.00 75 1015.5
20260901075540 53 32 0.0 4.0 0.00 0.00 0.00 75 1015.4
20260901075040 53 326 0.0 4.0 0.00 0.00 0.00 75 1015.4
20260901074541 53 286 0.0 2.0 0.00 0.00 0.00 74 1015.4
20260901074509 53 268 0.0 3.0 0.00 0.00 0.00 74 1015.2
20260901073536 53 23 0.0 5.0 0.00 0.00 0.00 74 1015.2
20260901073434 53 317 0.0 5.0 0.00 0.00 0.00 74 1015.2
20260901072543 53 254 0.0 6.0 0.00 0.00 0.00 75 1015.2
20260901072053 53 329 0.0 6.0 0.00 0.00 0.00 75 1015.1
20260901071553 53 344 0.0 2.0 0.00 0.00 0.00 76 1015.0
20260901071038 53 329 0.0 1.0 0.00 0.00 0.00 76 1015.1
20260901070535 53 313 0.0 1.0 0.00 0.00 0.00 76 1015.1
20260901070037 52 317 0.0 1.0 0.00 0.00 0.00 78 1015.1
20260901065536 52 304 0.0 0.0 0.00 0.00 0.00 80 1015.1
20260901065032 51 279 0.0 0.0 0.00 0.00 0.00 82 1014.9
20260901064930 51 275 0.0 0.0 0.00 0.00 0.00 85 1014.8
20260901064031 51 270 0.0 0.0 0.00 0.00 0.00 84 1014.8
20260901063532 51 270 0.0 1.0 0.00 0.00 0.00 84 1014.7
20260901063030 51 270 0.0 1.0 0.00 0.00 0.00 83 1014.7
20260901062531 51 271 0.0 1.0 0.00 0.00 0.00 82 1014.5
20260901062428 51 272 0.0 0.0 0.00 0.00 0.00 82 1014.4
20260901061532 51 233 0.0 0.0 0.00 0.00 0.00 81 1014.4
20260901061030 51 233 0.0 0.0 0.00 0.00 0.00 80 1014.3
20260901060531 51 233 0.0 0.0 0.00 0.00 0.00 79 1014.3
20260901060033 52 233 0.0 0.0 0.00 0.00 0.00 77 1014.1
20260901055529 53 233 0.0 0.0 0.00 0.00 0.00 75 1014.0
20260901055033 53 233 0.0 0.0 0.00 0.00 0.00 74 1014.0
20260901054531 54 233 0.0 0.0 0.00 0.00 0.00 71 1014.0
20260901054031 55 233 0.0 0.0 0.00 0.00 0.00 68 1013.9
20260901053933 56 233 0.0 1.0 0.00 0.00 0.00 66 1013.8
20260901053027 56 233 0.0 1.0 0.00 0.00 0.00 63 1013.7
20260901052934 56 284 0.0 2.0 0.00 0.00 0.00 63 1013.5
20260901052025 57 303 1.0 3.0 0.00 0.00 0.00 61 1013.4
20260901051524 57 321 1.0 7.0 0.00 0.00 0.00 60 1013.2
20260901051420 57 309 1.0 8.0 0.00 0.00 0.00 59 1013.2
20260901050523 57 318 1.0 8.0 0.00 0.00 0.00 59 1013.0
20260901050018 57 306 1.0 6.0 0.00 0.00 0.00 59 1012.9
20260901045513 58 276 1.0 7.0 0.00 0.00 0.00 58 1012.7
20260901045007 58 323 1.0 7.0 0.00 0.00 0.00 58 1012.8
20260901044459 58 355 0.0 4.0 0.00 0.00 0.00 58 1012.8
20260901043955 59 257 1.0 8.0 0.00 0.00 0.00 57 1012.7
20260901043447 60 340 1.0 8.0 0.00 0.00 0.00 58 1012.8
20260901042941 61 296 0.0 3.0 0.00 0.00 0.00 57 1012.8
20260901042436 62 330 1.0 3.0 0.00 0.00 0.00 55 1012.6
20260901042311 62 296 1.0 3.0 0.00 0.00 0.00 54 1012.5
20260901041422 63 331 1.0 5.0 0.00 0.00 0.00 54 1012.6
20260901040916 63 322 1.0 5.0 0.00 0.00 0.00 54 1012.5
20260901040409 63 210 1.0 11.0 0.00 0.00 0.00 51 1012.4
20260901035903 63 298 1.0 11.0 0.00 0.00 0.00 53 1012.2
20260901035357 63 328 1.0 8.0 0.00 0.00 0.00 52 1012.1
20260901034852 63 355 2.0 9.0 0.00 0.00 0.00 51 1012.1
20260901034346 63 260 2.0 9.0 0.00 0.00 0.00 52 1012.1
20260901033840 63 255 2.0 7.0 0.00 0.00 0.00 51 1012.2
20260901033334 64 352 1.0 8.0 0.00 0.00 0.00 50 1012.1
20260901032828 64 276 2.0 9.0 0.00 0.00 0.00 50 1012.2
20260901032322 64 59 1.0 9.0 0.00 0.00 0.00 50 1012.4
20260901032231 65 350 1.0 8.0 0.00 0.00 0.00 52 1012.3
20260901031758 65 338 1.0 8.0 0.00 0.00 0.00 54 1012.5
20260901030816 65 216 1.0 5.0 0.00 0.00 0.00 52 1012.4
20260901030301 65 31 1.0 10.0 0.00 0.00 0.00 52 1012.3
20260901025752 65 338 1.0 10.0 0.00 0.00 0.00 52 1012.4
20260901025246 65 334 2.0 8.0 0.00 0.00 0.00 52 1012.2
20260901024749 65 321 2.0 8.0 0.00 0.00 0.00 54 1012.2
20260901024234 65 231 1.0 8.0 0.00 0.00 0.00 50 1012.0
20260901023727 65 284 1.0 8.0 0.00 0.00 0.00 52 1012.0
20260901023221 66 0 1.0 4.0 0.00 0.00 0.00 51 1012.0
20260901022719 66 335 1.0 4.0 0.00 0.00 0.00 50 1012.0
20260901022630 66 303 1.0 4.0 0.00 0.00 0.00 53 1012.0
20260901021719 65 303 2.0 8.0 0.00 0.00 0.00 51 1012.0
20260901021220 65 310 2.0 8.0 0.00 0.00 0.00 52 1012.0
20260901020712 66 6 1.0 6.0 0.00 0.00 0.00 50 1012.0
20260901020211 65 303 1.0 6.0 0.00 0.00 0.00 50 1012.0
20260901015712 65 279 1.0 6.0 0.00 0.00 0.00 52 1012.0
20260901015209 65 349 1.0 6.0 0.00 0.00 0.00 51 1011.9
20260901014711 65 30 1.0 7.0 0.00 0.00 0.00 53 1012.0
20260901014611 65 260 1.0 7.0 0.00 0.00 0.00 53 1012.0
20260901013711 64 350 2.0 11.0 0.00 0.00 0.00 52 1012.1
20260901013211 64 293 2.0 11.0 0.00 0.00 0.00 51 1012.0
20260901012707 64 258 2.0 9.0 0.00 0.00 0.00 55 1012.3
20260901012212 64 313 2.0 9.0 0.00 0.00 0.00 55 1012.3
20260901011712 64 334 2.0 10.0 0.00 0.00 0.00 56 1012.3
20260901011354 64 326 2.0 10.0 0.00 0.00 0.00 56 1012.3
20260901010205 64 263 1.0 4.0 0.00 0.00 0.00 61 1012.6
20260901005705 64 6 1.0 4.0 0.00 0.00 0.00 55 1012.6
20260901005204 65 336 1.0 4.0 0.00 0.00 0.00 54 1012.9
20260901005124 65 336 0.0 4.0 0.00 0.00 0.00 55 1013.0
20260901004203 64 358 0.0 5.0 0.00 0.00 0.00 58 1013.0
20260901003704 63 346 1.0 5.0 0.00 0.00 0.00 57 1013.2
20260901003604 63 359 1.0 6.0 0.00 0.00 0.00 59 1013.3
20260901002659 63 309 2.0 7.0 0.00 0.00 0.00 57 1013.4
20260901002157 63 296 2.0 8.0 0.00 0.00 0.00 59 1013.3
20260901001658 63 269 2.0 8.0 0.00 0.00 0.00 55 1013.2
20260901001157 64 355 2.0 7.0 0.00 0.00 0.00 53 1013.2
20260901000658 65 5 2.0 7.0 0.00 0.00 0.00 52 1013.4
20260901000601 65 33 1.0 4.0 0.00 0.00 0.00 57 1013.4
20260831235657 64 2 1.0 4.0 0.00 0.00 0.00 57 1013.3
20260831235601 64 17 1.0 8.0 0.00 0.00 0.00 56 1013.3
20260831234656 63 300 1.0 8.0 0.00 0.00 0.00 56 1013.2
20260831234157 62 293 1.0 5.0 0.00 0.00 0.00 58 1013.3
20260831233657 61 277 1.0 5.0 0.00 0.00 0.00 62 1013.3
20260831233158 61 52 1.0 8.0 0.00 0.00 0.00 59 1013.3
20260831232658 61 331 1.0 8.0 0.00 0.00 0.00 57 1013.1
20260831232157 61 317 1.0 5.0 0.00 0.00 0.00 56 1013.3
20260831231657 61 296 1.0 7.0 0.00 0.00 0.00 56 1013.1
20260831231157 61 298 2.0 7.0 0.00 0.00 0.00 57 1013.2
20260831230656 62 289 2.0 7.0 0.00 0.00 0.00 56 1013.2
20260831230215 61 17 2.0 10.0 0.00 0.00 0.00 57 1013.2
20260831225657 62 35 2.0 10.0 0.00 0.00 0.00 54 1013.2
20260831225213 61 16 2.0 8.0 0.00 0.00 0.00 60 1013.0
20260831225153 62 7 2.0 8.0 0.00 0.00 0.00 61 1013.0
20260831224152 60 280 2.0 8.0 0.00 0.00 0.00 62 1013.1
20260831224103 60 339 1.0 7.0 0.00 0.00 0.00 58 1013.0
20260831223335 60 350 1.0 8.0 0.00 0.00 0.00 61 1013.1